AirNav   Pilot Hours Calculator
 
 1311 users online  

I44 Dahio Trotwood Airport
Dayton, Ohio, USA

GOING TO DAYTON?


FAA INFORMATION EFFECTIVE 28 MARCH 2019

Location

FAA Identifier: I44
Lat/Long: 39-45-57.2030N / 084-20-35.8020W
39-45.953383N / 084-20.596700W
39.7658897 / -84.3432783
(estimated)
Elevation: 925 ft. / 282 m (estimated)
Variation: 04W (1985)
From city: 7 miles W of DAYTON, OH
Time zone: UTC -4 (UTC -5 during Standard Time)
Zip code: 45427

Airport Operations

Airport use: Open to the public
Activation date: 08/1971
Control tower: no
ARTCC: INDIANAPOLIS CENTER
FSS: DAYTON FLIGHT SERVICE STATION
NOTAMs facility: DAY (NOTAM-D service available)
Attendance: IREG
Wind indicator: yes
Segmented circle: no
Beacon: white-green (lighted land airport)
ARPT BCN OTS INDEFLY. Operates sunset to sunrise.

Airport Communications

CTAF/UNICOM: 122.8
COLUMBUS APPROACH: 118.85
COLUMBUS DEPARTURE: 118.85
CLASS C: 118.85
IC: 118.85
WX ASOS at DAY (10 nm NE): PHONE 937-415-6819
WX ASOS at MGY (12 nm SE): 118.375 (937-885-2171)
WX AWOS-3 at MWO (14 nm S): 120.025 (513-422-3505)
WX AWOS-3 at I19 (17 nm E): 118.525 (937-372-4668)
WX AWOS-3 at I68 (19 nm S): 120.55 (513-934-5500)

Nearby radio navigation aids

VOR radial/distance  VOR name  Freq  Var
DQNr172/15.2DAYTON VOR/DME114.5001W
SGHr264/23.4SPRINGFIELD VOR/DME113.2004W
MXQr313/32.2MIDWEST VOR/DME112.9004W
RODr209/34.2ROSEWOOD VORTAC117.5005W

 
NDB name  Hdg/Dist  Freq  Var  ID
BRUNY191/4.931506WAT .- -
ONIDA359/11.322304WMW -- .--
HOOK FIELD021/16.723904WHKF .... -.- ..-.
CLARK COUNTY260/26.834104WCCJ -.-. -.-. .---
CINCINNATI004/36.433504WLUK .-.. ..- -.-

Airport Services

Parking: tiedowns
Bottled oxygen: NONE
Bulk oxygen: NONE

Runway Information

Runway 4/22

Dimensions: 2900 x 52 ft. / 884 x 16 m
Surface: asphalt, in poor condition
NUMEROUS CRACKS IN PAVEMENT W/ VEGETATION.
Weight bearing capacity: 
Single wheel: 5000 LBS SINGLE WHEEL STRENGTH LIMIT PER ARPT MGR.
RUNWAY 4  RUNWAY 22
Latitude: 39-45.731333N39-46.081333N
Longitude: 084-20.787667W084-20.367667W
Elevation: 925.0 ft.925.0 ft.
Gradient: 0.3%0.3%
Traffic pattern: leftleft
Runway end identifier lights: nono
Obstructions: 80 ft. trees, 717 ft. from runway, 120 ft. right of centerline, 6:1 slope to clear65 ft. trees, 633 ft. from runway, 6:1 slope to clear
40 FT TREES 0 FT FM RY END 20-125 FT L; CROPS 0 FT FM RY END 125 FT R/L.

Airport Ownership and Management from official FAA records

Ownership: Privately-owned
Owner: S & S LAND & FARMS, LLC
3500 PENTAGON BLVD., SUITE 400
BEAVERCREEK, OH 45431
Phone 937-263-2676
Manager: STEVE RAUCH
84 PHEASENT RUN
DAYTON, OH 45418
Phone 937-263-2676
CELL 937-604-2619

Airport Operational Statistics

Aircraft operations: 100/year *
100% transient general aviation
* for 12-month period ending 02 September 2016

Additional Remarks

ULTRALIGHTS ON & INVOF ARPT.
COLUMBUS APCH CTL TEL# 614-338-8537.

Instrument Procedures

There are no published instrument procedures at I44.

Some nearby airports with instrument procedures:

3I7 - Dayton-Phillipsburg Airport (9 nm N)
KDAY - James M Cox Dayton International Airport (10 nm NE)
KMGY - Dayton-Wright Brothers Airport (12 nm SE)
KFFO - Wright-Patterson Air Force Base (14 nm E)
KMWO - Middletown Regional Airport/Hook Field (14 nm S)
I19 - Greene County-Lewis A Jackson Regional Airport (17 nm E)
I68 - Warren County Airport/John Lane Field (19 nm S)
 
Loc | Ops | Rwys | IFR | FBO | Links
Com | Nav | Svcs | Stats | Notes
Area around I44 (Dahio Trotwood Airport)
 
Road maps at: MapQuest Bing Google
 
Aerial photo
WARNING: Photo may not be current or correct
Aerial photo of I44 (Dahio Trotwood Airport)
Photo taken 12-Oct-2014
looking southwest.

Do you have a better or more recent aerial photo of Dahio Trotwood Airport that you would like to share? If so, please send us your photo.

 
Sectional chart

 
Airport distance calculator
Flying to Dahio Trotwood Airport? Find the distance to fly.

From to I44

Sunrise and sunset
Times for 24-Apr-2019
 Local
(UTC-4)
 Zulu
(UTC)
Morning civil twilight06:1910:19
Sunrise06:4810:48
Sunset20:2300:23
Evening civil twilight20:5200:52

Current date and time
Zulu (UTC)  24-Apr-2019 13:32:47
Local (UTC-4)  24-Apr-2019 09:32:47
 
METAR
KDAY 
10nm NE 
241256Z 00000KT 10SM BKN130 BKN200 09/05 A3005 RMK AO2 SLP176 T00940050
KMGY 
11nm SE 
241253Z AUTO 06005KT 10SM BKN120 11/05 A3003 RMK AO2 SLP169 T01060050
KMWO 
14nm S 
241315Z AUTO 07004KT 10SM CLR 10/06 A3005 RMK AO2 T00960062
KFFO 
15nm E 
241256Z AUTO 03003KT 10SM OVC130 09/05 A3005 RMK AO2 SLP180 T00930051
KI68 
19nm S 
241315Z AUTO 10005KT 10SM CLR 10/08 A3005 RMK AO1 T01020078
TAF
KDAY 
10nm NE 
241131Z 2412/2512 32003KT P6SM BKN200 FM241500 12004KT P6SM BKN120 FM250300 12005KT P6SM -SHRA OVC050 FM250600 17007KT P6SM VCSH OVC040 FM250900 18008KT P6SM VCSH OVC025
KFFO 
15nm E 
241100Z 2411/2517 02006KT 9999 SCT100 BKN150 OVC250 621504 QNH2990INS BECMG 2420/2421 09006KT 9999 BKN040 OVC060 601102 QNH2988INS BECMG 2503/2504 14006KT 9000 -RA OVC015 QNH2980INS BECMG 2505/2506 14006KT 4800 -RA BR BKN007 OVC015 621102 522504 QNH2979INS BECMG 2516/2517 26009KT 8000 -SHRA BKN015 OVC030 641106 QNH2979INS TX18/2421Z TN05/2412Z
NOTAMs
Click for the latest NOTAMs
NOTAMs are issued by the DoD/FAA and will open in a separate window not controlled by AirNav.

 

 
 

Would you like to see your business listed on this page?

 If your business provides an interesting product or service to pilots, flight crews, aircraft, or users of the Dahio Trotwood Airport, you should consider listing it here.  To start the listing process, click on the button below
 
Add a business
 

Other Pages about Dahio Trotwood Airport

Update a link
 
Copyright © AirNav, LLC. All rights reserved. Privacy Policy  Contact